Location: Dresden
(51.0483°N, 13.7137°E)
Time: 16:51:32
(UTC+01:00)

ISS - Pass Details

Date: 12 February 2018
Orbit: 402 x 407 km, 51.6° (Epoch: 25 February)

Event Time Altitude Azimuth Distance (km) Brightness Sun altitude
Rises 18:32:33 0° 280° (W) 2,321 1.6 -12.5°
Reaches altitude 10° 18:35:18 10° 255° (WSW) 1,457 0.4 -13.0°
Maximum altitude 18:37:10 14° 220° (SW) 1,218 -0.8 -13.3°
Drops below altitude 10° 18:39:01 10° 185° (S) 1,453 -0.9 -13.6°
Sets 18:41:45 0° 160° (SSE) 2,308 -0.2 -14.0°
